Calgary Springbank,

2:02 AM MDT on October 17, 2017 (GMT -0600)
Calgary Springbank

Weather History for CYBW - November, 2012

Change the Weather History Date:

Monday, November 12, 2012

  Actual Average Record
Temperature  
Mean Temperature 25 °F -  
Max Temperature 37 °F 31 °F 59 °F (1999)
Min Temperature 13 °F 12 °F -11 °F (2014)
Degree Days  
Heating Degree Days 40    
Moisture  
Dew Point 19 °F    
Average Humidity 58    
Maximum Humidity 74    
Minimum Humidity 40    
Precipitation  
Precipitation 0.00 in - - ()
Sea Level Pressure  
Sea Level Pressure 30.07 in    
Wind  
Wind Speed 13 mph ()    
Max Wind Speed 21 mph    
Max Gust Speed 22 mph    
Visibility 15.8 miles    
Events      
Averages and records for this station are not official NWS values.
T = Trace of Precipitation, MM = Missing Value Source: Averaged Metar Reports

Daily Weather History Graph

Daily Weather History Graph

Search for Another Location

Airport or City:

Trip Planner

Search our weather history database for the weather conditions in past years. The results will help you decide how hot, cold, wet, or windy it might be!

Date:

Astronomy

Nov. 12, 2012 Rise Set
Actual Time 7:50 AM MST 4:52 PM MST
Civil Twilight 7:13 AM MST 5:29 PM MST
Nautical Twilight 6:33 AM MST 6:09 PM MST
Astronomical Twilight 5:54 AM MST 6:47 PM MST
Moon 6:15 AM MST (11/12) 4:03 PM MST (11/12)
Length of Visible Light 10h 15m
Length of Day
9h 02m
Waning Crescent, 2% of the Moon is Illuminated
Nov 12
Waning Crescent
Nov 13
New
Nov 20
First Quarter
Nov 28
Full
Dec 6
Last Quarter

Hourly Weather History & Observations

Time (MST) Temp. Windchill Dew Point Humidity Pressure Visibility Wind Dir Wind Speed Gust Speed Precip Events Conditions
5:00 AM 27 °F - 16 °F 51% 30.09 in 15 mi NW 13.8 mph - -   Scattered Clouds
5:00 AM 26.6 °F 15.2 °F 15.8 °F 64% 30.08 in 15.0 mi NW 13.8 mph - N/A   Scattered Clouds
6:00 AM 28.4 °F 19.7 °F 21.2 °F 74% 30.08 in 15.0 mi WNW 9.2 mph - N/A   Scattered Clouds
7:00 AM 30.2 °F 20.2 °F 19.4 °F 64% 30.09 in 15.0 mi NNW 12.7 mph - N/A   Mostly Cloudy
7:36 AM 30.2 °F 18.5 °F 19.4 °F 64% 30.08 in 30.0 mi WNW 17.3 mph - N/A   Mostly Cloudy
8:00 AM 30.2 °F 19.3 °F 17.6 °F 60% 30.08 in 30.0 mi WNW 15.0 mph - N/A   Mostly Cloudy
9:00 AM 32.0 °F 21.6 °F 19.4 °F 60% 30.09 in 30.0 mi WNW 15.0 mph - N/A   Mostly Cloudy
10:00 AM 32.0 °F 22.1 °F 17.6 °F 55% 30.08 in 30.0 mi WNW 13.8 mph 21.9 mph N/A   Mostly Cloudy
11:00 AM 35 °F - 19 °F 40% 30.09 in 28 mi West 17.3 mph - -   Scattered Clouds
11:00 AM 35.6 °F 25.5 °F 19.4 °F 52% 30.09 in 30.0 mi West 17.3 mph - N/A   Mostly Cloudy
12:00 PM 33.8 °F 25.3 °F 19.4 °F 56% 30.06 in 30.0 mi NNW 11.5 mph - N/A   Mostly Cloudy
12:23 PM 37.4 °F 27.8 °F 21.2 °F 52% 30.06 in 30.0 mi West 17.3 mph - N/A   Mostly Cloudy
1:00 PM 37.4 °F 28.5 °F 21.2 °F 52% 30.06 in 30.0 mi West 15.0 mph - N/A   Mostly Cloudy
2:00 PM 37.4 °F 26.9 °F 21.2 °F 52% 30.05 in 30.0 mi West 20.7 mph - N/A   Mostly Cloudy
3:00 PM 35.6 °F 25.9 °F 19.4 °F 52% 30.06 in 30.0 mi West 16.1 mph - N/A   Mostly Cloudy
4:00 PM 33.8 °F 24.8 °F 19.4 °F 56% 30.06 in 30.0 mi WNW 12.7 mph 18.4 mph N/A   Mostly Cloudy
5:00 PM 33 °F - 20 °F 45% 30.07 in 19 mi West 17.3 mph - -   Overcast
5:00 PM 32.0 °F 20.8 °F 19.4 °F 60% 30.07 in 20.0 mi West 17.3 mph - N/A   Overcast
6:00 PM 30.2 °F 18.9 °F 19.4 °F 64% 30.07 in 15.0 mi West 16.1 mph - N/A   Mostly Cloudy
7:00 PM 30.2 °F 19.8 °F 19.4 °F 64% 30.07 in 15.0 mi West 13.8 mph - N/A   Scattered Clouds
8:00 PM 28.4 °F 21.2 °F 19.4 °F 69% 30.08 in 15.0 mi NNW 6.9 mph - N/A   Mostly Cloudy
8:10 PM 32.0 °F 21.6 °F 19.4 °F 60% 30.07 in 15.0 mi West 15.0 mph - N/A   Mostly Cloudy
9:00 PM 33.8 °F 22.8 °F 19.4 °F 56% 30.06 in 15.0 mi West 18.4 mph - N/A   Mostly Cloudy
10:00 PM 32.0 °F 21.2 °F 19.4 °F 60% 29.93 in 15.0 mi West 16.1 mph - N/A   Scattered Clouds